Вернуться в каталог

STARLINK-37340

АктивенСвязьVLEO
NORAD 68708·PAYLOAD·🇺🇸 United States

Запущен Apr 14, 2026 с Cape Canaveral Space Force Station

Loading…

Ближайшие Пролёты (ближайшие 24 часа)

TLE

СвежийSource: CelesTrak SupGP

Эпоха: Sep 14, 2026, 22:34 UTC

1 68708C 26081K   26257.94076389  .00027728  00000+0  81844-3 0  2574
2 68708  53.1576 231.8665 0001225  98.3721 230.4314 15.34407046    11

Отслеживайте STARLINK-37340 в реальном времени с AllMySat

Download on the App Store